Weather in Musina

South Africa     22°19′57″S   30°01′59″E
temp.,
°C
wind,
m/s
gust,
m/s
humid.,
%
clouds,
%
prec.,
mm/h
press.,
hPa
HPBL,
m
18 may, tue
tue1823:00+19ese4106432 0.0 1019159
02:00+18e7137095 0.0 1020327
05:00+16ese713845 0.0 1022368
08:00+18ese8127711 0.0 1024655
11:00+23e785576 0.0 10241336
14:00+24e664940 0.0 10221521
17:00+22e565380 0.0 10221324
20:00+19ese33660 0.0 102423
19 may, wed
wed1923:00+17ese22750 0.0 102411
02:00+15se12815 0.0 102311
05:00+15ese22800 0.0 102312
08:00+18ese35670 0.0 1024245
11:00+24e45460 0.0 10221233
14:00+27e44330 0.0 10191807
17:00+25ese33350 0.0 101933
20:00+20e33510 0.0 102021
20 may, thu
thu2023:00+18e33590 0.0 102014
02:00+16se22660 0.0 102011
05:00+14ene117698 0.0 102011
08:00+18ne12555 0.0 1021165
11:00+24n12380 0.0 1020993
14:00+27nnw11270 0.0 10161805
17:00+25nw22300 0.0 101611
20:00+20w22370 0.0 101711
21 may, fri
fri2123:00+19ene22430 0.0 101711
02:00+16nne22480 0.0 101711
05:00+15nnw22510 0.0 101711
08:00+20nw11371 0.0 1019103
11:00+27wnw22240 0.0 1018744
14:00+31wsw24190 0.0 10141876
17:00+28nnw22220 0.0 101411
20:00+22n22320 0.0 101711
22 may, sat
sat2223:00+21e33321 0.0 101811
02:00+19ese915390 0.0 1020305
05:00+17ese916800 0.0 1021500
08:00+19ese11157414 0.0 1024965
11:00+21ese12136589 0.0 10251144
14:00+23ese91054100 0.1 10231457
17:00+21ese81057100 0.0 10241524
20:00+19ese81166100 0.0 1027676